This is the latest recevied weather packets stored in our database for station/object HB9FHL-13. If no packets are shown the sender has not sent any weather packets the latest 10 day(s).
| Time | Temp. | Humidity | Pressure | Rain* | Wind** | Luminosity | Snow |
|---|---|---|---|---|---|---|---|
| 1778028476 | 11.67° C | - | 1006.5 hPa | 0 mm | - | - | - |
| 1778028175 | 12.22° C | - | 1007.5 hPa | 0 mm | - | - | - |
| 1778027875 | 12.78° C | - | 1009.7 hPa | 0 mm | - | - | - |
| 1778027574 | 13.33° C | - | 1012.4 hPa | 0 mm | - | - | - |
| 1778027274 | 12.78° C | - | 1008.7 hPa | 0 mm | - | - | - |
| 1778026974 | 13.33° C | - | 1004.7 hPa | 0 mm | - | - | - |
| 1778026673 | 12.78° C | - | 1007.2 hPa | 0 mm | - | - | - |
| 1778026374 | 13.33° C | - | 1010 hPa | 0 mm | - | - | - |
| 1778026072 | 12.22° C | - | 1009.3 hPa | 0 mm | - | - | - |
| 1778025771 | 12.22° C | - | 1009.8 hPa | 0 mm | - | - | - |
| 1778025471 | 13.33° C | - | 1006.5 hPa | 0 mm | - | - | - |
| 1778025170 | 12.78° C | - | 1009.7 hPa | 0 mm | - | - | - |
| 1778024870 | 12.78° C | - | 1010.5 hPa | 0 mm | - | - | - |
| 1778024569 | 12.78° C | - | 1008.6 hPa | 0 mm | - | - | - |
| 1778024269 | 13.33° C | - | 1007 hPa | 0 mm | - | - | - |
| 1778023968 | 12.78° C | - | 1010.7 hPa | 0 mm | - | - | - |
| 1778023668 | 13.89° C | - | 1013 hPa | 0 mm | - | - | - |
| 1778023368 | 12.78° C | - | 1004.2 hPa | 0 mm | - | - | - |
| 1778023068 | 13.33° C | - | 1007.2 hPa | 0 mm | - | - | - |
| 1778022767 | 12.78° C | - | 1009.6 hPa | 0 mm | - | - | - |
| 1778022466 | 13.33° C | - | 1008.1 hPa | 0 mm | - | - | - |
| 1778022165 | 12.78° C | - | 1008.3 hPa | 0 mm | - | - | - |
| 1778021865 | 12.78° C | - | 1007.1 hPa | 0 mm | - | - | - |
| 1778021565 | 13.33° C | - | 1007 hPa | 0 mm | - | - | - |
| 1778021264 | 13.89° C | - | 1007 hPa | 0 mm | - | - | - |
* Rain since midnight (hover to see other rain measurements)
** Current wind speed in m/s (hover to see current wind gust speed)